Simultaneous Nadir Overpasses (SNOs) Predictions

Prediction of SNOs between GOES-17 and LANDSAT-8 Satellite Orbit:

Table of predicted SNOs for the next 14.0 days since TLE Epoch: 1/7/2025
Index Date Time (GOES-17) GOES-17 Lat,Lon LANDSAT-8 Lat,Lon Distance(km) Time Diff (sec)
1 01/07/2025 05:21:59 -0.01,-104.65 -0.49,-107.00 266.85 80
2 01/09/2025 05:07:08 -0.01,-104.65 0.11,-104.04 68.21 80
3 01/11/2025 04:54:57 -0.01,-104.64 0.75,-101.09 403.31 80
4 01/11/2025 17:16:13 0.00,-104.64 0.32,-106.25 182.39 80
5 01/13/2025 17:06:41 0.01,-104.64 -0.30,-103.29 153.49 80
6 01/14/2025 05:28:04 -0.01,-104.63 -0.80,-108.48 437.09 80
7 01/15/2025 16:54:28 0.02,-104.64 -0.89,-100.33 490.11 80
8 01/16/2025 05:15:51 -0.02,-104.63 -0.20,-105.52 100.41 80
9 01/18/2025 05:00:58 -0.03,-104.63 0.38,-102.54 236.95 80
10 01/18/2025 17:22:13 0.03,-104.63 0.66,-107.71 349.48 80
11 01/20/2025 17:09:59 0.03,-104.64 0.04,-104.74 11.66 80
